Home   Weather   Rzeszów   Past weeks

Flag for Poland Past Weather in Rzeszów, Poland — Yesterday and Last 2 Weeks

Now
36 °F

Passing clouds.


Feels Like: 26 °F
Forecast: 41 / 47 °F
Wind: 15 mph from West

Location: Rzeszow-Jasionka

Current Time: Feb 22, 2017 at 2:52:23 am

Latest Report: Feb 22, 2017 at 2:00 am


Visibility: N/A

Pressure: 29.80 "Hg

Humidity: 93%

Dew Point: 34 °F

Location of RzeszówLocation

Past Weather in Rzeszów — Graph

°F

Rzeszów Temperature Yesterday

Maximum temperature yesterday: 46 °F (at 1:30 pm)
Minimum temperature yesterday: 34 °F (at 2:00 am)
Average temperature yesterday: 39 °F

High & Low Weather Summary for the Past Weeks

 TemperatureHumidityPressure
High46 °F (Feb 16, 1:30 pm)100% (Feb 16, 3:30 am)30.69 "Hg (Feb 16, 3:30 am)
Low12 °F (Feb 11, 4:30 am)43% (Feb 10, 2:30 pm)29.62 "Hg (Feb 21, 1:00 pm)
Average27 °F80%30.32 "Hg
* Reported Feb 7 1:00 am — Feb 22 1:30 am, Rzeszów, Weather by CustomWeather, © 2017

Note: Actual official high and low records may vary slightly from our data, if they occured in-between our weather recording intervals... More about our weather records

Advertising

Rzeszów Weather History for the Previous 24 Hours

Scroll right to see more
 ConditionsComfort  
Time TempWeatherWind HumidityBarometerVisibility
1:30 am
Wed, Feb 22
36 °FPassing clouds.14 mph93%29.80 "HgN/A
1:00 am34 °FPassing clouds.13 mph93%29.80 "HgN/A
12:30 am37 °FClear.15 mph87%29.80 "Hg10 mi
12:00 am37 °FPassing clouds.21 mph87%29.77 "HgN/A
11:30 pm
Tue, Feb 21
39 °FSprinkles. Passing clouds.18 mph81%29.77 "HgN/A
11:00 pm39 °FPassing clouds.14 mph81%29.77 "HgN/A
10:30 pm39 °FClear.18 mph81%29.74 "Hg10 mi
10:00 pm41 °FClear.17 mph76%29.74 "Hg10 mi
9:30 pm39 °FPassing clouds.16 mph87%29.74 "HgN/A
9:00 pm39 °FPassing clouds.16 mph87%29.74 "HgN/A
8:30 pm39 °FPassing clouds.16 mph87%29.74 "HgN/A
8:00 pm41 °FPassing clouds.16 mph81%29.71 "HgN/A
7:30 pm41 °FPassing clouds.17 mph87%29.68 "HgN/A
7:00 pm41 °FPartly cloudy.15 mph93%29.68 "HgN/A
6:30 pm43 °FSprinkles. Partly cloudy.16 mph87%29.68 "HgN/A
6:00 pm43 °FSprinkles. Partly cloudy.15 mph87%29.65 "HgN/A
5:30 pm43 °FSprinkles. Partly cloudy.15 mph87%29.65 "Hg6 mi
5:00 pm43 °FSprinkles. Partly cloudy.13 mph87%29.65 "HgN/A
4:30 pm43 °FSprinkles. Broken clouds.13 mph93%29.62 "HgN/A
4:00 pm41 °FSprinkles. Broken clouds.13 mph93%29.62 "HgN/A
3:30 pm46 °FBroken clouds.18 mph76%29.62 "HgN/A
3:00 pm46 °FBroken clouds.18 mph82%29.62 "HgN/A
2:30 pm46 °FBroken clouds.18 mph82%29.62 "HgN/A
2:00 pm46 °FBroken clouds.17 mph82%29.62 "HgN/A
1:30 pm46 °FMore clouds than sun.21 mph82%29.62 "HgN/A
1:00 pm43 °FMore clouds than sun.13 mph87%29.62 "HgN/A
12:30 pm43 °FBroken clouds.13 mph87%29.65 "HgN/A
12:00 pm41 °FSprinkles. Scattered clouds.13 mph93%29.65 "HgN/A
11:30 am41 °FMore clouds than sun.15 mph93%29.65 "HgN/A
11:00 am39 °FMore clouds than sun.14 mph93%29.65 "HgN/A
10:30 am39 °FLow clouds.13 mph93%29.65 "HgN/A
10:00 am37 °FMore clouds than sun.16 mph93%29.65 "HgN/A
9:30 am37 °FMore clouds than sun.17 mph93%29.65 "HgN/A
9:00 am37 °FDrizzle. More clouds than sun.16 mph93%29.65 "Hg5 mi
8:30 am37 °FDrizzle. Mostly cloudy.16 mph93%29.65 "Hg4 mi
8:00 am36 °FDrizzle. Fog.15 mph100%29.65 "Hg3 mi
7:30 am36 °FDrizzle. Fog.14 mph100%29.65 "Hg2 mi
7:00 am36 °FDrizzle. Mostly cloudy.15 mph93%29.65 "Hg4 mi
6:30 am36 °FDrizzle. Mostly cloudy.15 mph93%29.65 "Hg4 mi
6:00 am36 °FLight rain. Mostly cloudy.17 mph93%29.65 "Hg5 mi
5:30 am36 °FLight rain. Overcast.21 mph93%29.65 "Hg6 mi
5:00 am36 °FLight rain. Overcast.21 mph87%29.68 "Hg5 mi
4:30 am36 °FLight rain. Overcast.18 mph87%29.68 "Hg5 mi
4:00 am36 °FLight rain. Overcast.18 mph87%29.68 "Hg4 mi
3:30 am36 °FLight rain. Low clouds.18 mph87%29.71 "Hg5 mi
3:00 am34 °FLight rain. Overcast.23 mph93%29.71 "Hg5 mi
2:30 am34 °FLight rain. Overcast.18 mph93%29.74 "Hg4 mi
2:00 am34 °FLight rain. Overcast.18 mph93%29.74 "Hg4 mi
Weather by CustomWeather, © 2017

See weather overviewHow to use our weather pages